Theta_e
333 331 325 325 323 321 321 315 299 305 303 297 299 302 302 308 307 306 306 308 305 311 314 315 314 312 308 307 311 327 331 325 327 323 321 337 349 350 348 348 347 347 346 350 352 352 355 357 358 358 358 358 357 356 356 356 356 356 356 355 355 355 355 355 354 354 353 352 352 352 352 351 351 350 350 349 349 348 348 347 345 345 346 345 345 345 346 345 345 346 345 344 343 343 343 343 343
325 324 325 327 325 320 312 314 302 301 301 298 300 303 303 307 307 305 305 306 308 309 312 312 312 312 312 313 314 324 330 332 335 335 341 346 349 349 348 348 347 345 347 350 352 353 352 356 357 357 357 357 356 356 356 356 356 356 356 355 355 355 355 355 354 354 352 352 352 351 351 350 350 349 349 348 348 349 348 346 345 346 347 345 346 345 346 346 347 347 347 345 344 344 343 343 343
325 328 327 324 319 316 314 312 298 299 298 296 301 304 306 304 304 305 307 307 309 311 311 311 311 311 311 313 312 317 323 338 337 340 341 348 342 344 348 348 346 345 346 347 349 351 350 355 356 357 357 356 356 356 356 356 356 356 355 355 356 356 355 354 354 353 352 351 351 351 350 349 349 349 349 350 348 348 346 347 346 348 347 346 346 345 347 347 347 347 348 349 346 344 343 343 343
326 328 327 317 309 314 308 308 302 298 296 299 300 304 305 305 304 306 308 309 310 310 310 309 308 316 316 313 325 332 331 332 339 339 337 343 344 346 347 346 348 347 346 345 347 348 351 355 356 356 356 356 356 356 355 355 355 355 355 355 355 355 354 354 353 352 351 351 351 350 349 348 348 348 348 350 349 347 346 348 349 348 346 346 347 347 348 349 348 349 349 349 348 347 344 343 341
323 326 326 316 309 306 305 303 302 300 295 299 298 303 305 306 306 307 308 310 310 310 309 309 309 319 334 332 334 325 327 336 338 341 343 346 349 348 347 346 346 345 343 344 346 348 351 355 354 355 355 356 355 355 356 355 355 355 355 355 355 354 353 353 352 351 351 351 350 350 349 348 347 348 348 349 349 347 347 348 351 349 348 347 348 349 349 349 349 348 349 348 348 347 344 342 341
320 320 322 317 309 315 310 303 300 299 302 304 302 302 305 307 307 307 308 310 311 311 311 310 308 319 328 333 337 333 338 331 338 344 345 344 347 348 347 347 345 343 343 344 346 348 351 354 354 354 354 355 355 356 355 355 355 355 354 354 354 354 353 352 352 351 350 350 350 350 349 349 348 348 348 348 348 348 348 349 349 348 347 347 348 348 348 348 348 348 347 347 347 346 345 342 340
314 315 315 313 312 312 303 301 300 301 304 307 304 305 305 307 307 307 308 309 312 312 313 309 312 328 327 333 338 340 343 341 341 344 348 347 348 348 349 346 344 343 343 344 347 348 352 353 353 354 354 355 355 355 355 355 354 354 354 354 354 353 352 352 351 351 350 350 349 349 349 349 349 348 348 348 348 348 348 350 348 349 350 350 350 350 349 349 348 347 347 347 346 346 346 342 340
320 311 311 303 302 305 299 299 300 303 303 306 307 306 306 307 308 307 306 307 308 309 311 311 314 314 327 333 328 338 344 346 346 349 348 348 348 348 347 345 343 342 343 346 348 348 355 352 353 353 354 354 355 355 354 354 354 353 353 353 353 353 353 351 351 351 351 350 349 349 349 349 348 347 347 348 348 349 351 351 351 351 351 350 350 349 349 348 348 347 346 345 346 346 346 344 341
316 313 315 307 299 303 300 299 300 305 306 307 306 308 314 308 308 307 306 307 310 312 310 313 315 313 323 333 331 337 341 347 349 349 349 347 347 347 346 344 342 343 344 346 349 350 350 352 352 352 353 354 354 354 354 354 353 352 352 352 353 353 352 352 351 351 351 351 351 350 350 350 349 349 349 349 349 349 352 352 351 351 350 350 349 349 348 347 347 346 345 345 345 346 345 345 343
312 312 306 304 303 298 299 301 301 303 305 304 306 306 307 308 307 308 306 307 310 312 312 314 317 314 331 328 331 336 339 347 348 347 349 348 347 346 345 345 343 343 347 347 347 347 349 354 351 351 352 353 353 353 353 353 352 352 352 352 352 352 352 352 352 352 352 351 351 351 351 350 350 351 350 350 351 351 351 351 350 351 350 350 349 348 347 347 346 346 345 345 346 346 346 345 344
305 311 312 303 300 297 297 300 303 305 304 306 307 308 308 308 308 308 309 309 312 314 316 314 310 318 330 331 333 343 345 346 345 344 348 348 348 345 344 346 346 346 345 346 346 346 349 350 354 351 352 351 351 351 352 352 352 352 352 351 351 352 352 352 352 351 351 351 350 349 349 349 349 349 350 351 351 351 351 350 349 350 349 348 348 347 346 346 345 344 345 345 345 346 346 345 343
304 306 306 298 298 299 300 300 302 304 304 304 304 308 309 308 308 306 308 309 313 313 312 313 310 333 328 330 332 340 344 346 346 347 348 348 346 346 345 345 345 346 345 344 346 346 347 349 350 353 351 351 351 352 352 352 352 351 351 352 351 351 352 352 351 350 350 349 350 350 350 349 349 348 350 351 351 350 350 349 349 349 348 347 347 346 345 346 346 345 345 346 345 345 345 345 343
306 307 304 299 298 300 301 301 302 303 303 303 304 307 310 308 307 308 308 311 314 314 312 323 330 331 324 330 337 342 341 344 346 348 348 346 346 346 346 344 344 344 344 345 344 345 347 346 347 349 350 351 351 351 352 351 352 351 351 351 351 351 351 351 351 351 351 350 350 349 349 349 348 349 350 350 350 350 349 348 348 348 347 346 346 345 346 346 346 345 345 345 345 345 345 344 343
307 307 306 300 305 301 300 300 302 301 301 304 307 309 309 307 308 309 309 309 311 312 326 332 335 333 331 333 335 336 338 342 346 348 347 347 347 346 345 344 345 344 343 343 341 345 345 346 348 348 349 349 349 350 351 351 351 351 351 351 351 351 351 350 350 350 350 349 349 349 349 349 349 349 350 350 350 350 349 348 348 347 347 346 345 345 346 346 346 345 346 345 345 345 344 344 343
307 310 304 301 300 301 302 299 300 300 300 305 307 308 308 310 310 310 310 309 315 322 326 335 331 327 323 329 328 333 338 344 347 347 347 347 347 346 344 343 344 343 342 343 342 344 344 346 346 346 347 346 348 348 349 350 350 351 351 351 351 351 350 350 350 350 349 348 349 348 349 350 349 349 349 349 350 349 349 348 348 347 346 345 345 345 345 346 345 346 345 346 345 345 344 344 343
309 307 305 300 298 299 301 301 303 300 301 306 307 309 308 309 312 309 314 316 320 325 327 323 331 329 332 330 334 339 342 345 346 347 347 345 345 344 343 343 342 341 342 343 343 344 344 345 345 345 345 346 346 347 348 349 351 351 351 351 350 350 350 350 350 350 349 348 349 348 348 349 349 348 349 348 349 349 348 347 347 346 346 345 345 345 345 345 345 345 345 345 345 344 344 343 343
310 307 299 299 296 299 301 301 302 298 304 306 309 308 305 306 311 313 316 316 316 322 325 330 329 333 331 331 341 344 345 347 347 346 345 343 342 341 342 342 341 341 343 343 343 343 345 345 346 344 346 347 347 347 348 348 349 350 350 350 350 350 348 349 349 349 349 349 349 349 349 348 349 347 347 346 348 346 347 347 346 346 345 345 345 344 344 345 345 344 345 345 345 345 344 344 343
308 301 299 297 300 299 303 301 302 305 303 305 306 307 306 304 309 311 312 316 316 324 325 333 335 333 333 339 345 345 346 345 346 343 341 340 341 339 338 340 339 337 340 340 342 344 343 343 343 345 346 347 348 347 348 348 349 348 348 348 347 348 349 350 349 349 350 349 349 347 347 348 345 346 347 346 345 346 346 346 346 345 344 345 344 344 344 345 344 344 344 345 345 345 344 342 342
303 302 300 297 301 303 306 305 306 304 302 306 306 308 306 306 307 310 307 314 319 319 327 330 328 331 336 341 343 344 344 345 345 343 341 340 338 338 338 339 339 338 339 340 341 344 343 343 344 345 345 346 346 346 346 348 347 347 347 348 347 348 349 349 348 346 346 347 346 345 347 346 344 344 344 346 345 346 345 345 344 344 344 345 344 344 344 344 344 343 344 344 345 345 343 342 340
305 302 298 299 304 305 307 307 306 307 306 305 306 307 306 308 308 311 306 307 313 316 320 324 327 329 331 339 341 342 343 343 345 343 341 340 339 339 339 339 338 339 339 341 340 343 343 343 344 345 344 345 344 344 345 346 345 345 345 346 346 346 347 347 345 343 343 344 344 345 344 345 343 345 344 343 345 344 344 345 345 344 344 343 344 343 344 343 343 342 343 344 345 344 341 341 339
305 302 299 302 306 303 306 307 307 307 307 305 305 306 305 307 309 308 307 306 306 325 328 326 325 328 331 335 337 340 343 341 342 342 341 340 341 342 342 341 340 340 341 342 343 343 343 345 345 345 345 347 347 344 343 344 343 343 342 343 343 344 345 344 342 346 348 346 346 345 344 343 343 344 342 344 343 342 342 342 342 341 342 340 343 340 340 340 340 339 339 342 343 342 341 342 346
305 302 304 304 305 303 307 307 308 307 307 305 305 303 303 309 308 307 308 304 305 323 326 329 328 331 332 334 338 340 340 339 339 337 340 341 341 341 342 343 345 344 344 341 341 342 342 346 345 345 345 347 348 346 344 343 343 347 340 342 341 342 344 346 345 345 345 344 344 343 345 341 341 342 340 339 343 341 340 341 340 340 339 339 341 340 337 337 335 335 336 336 340 341 343 344 344
299 304 304 305 306 304 307 306 306 306 305 304 304 306 308 306 306 308 308 306 309 319 323 328 330 333 334 337 339 339 340 334 333 338 340 340 340 342 343 342 341 340 341 340 343 339 337 340 341 340 344 345 343 341 343 346 345 347 348 347 344 347 346 343 344 344 342 342 342 343 342 340 341 341 341 339 339 342 340 339 340 340 340 338 338 339 335 336 333 336 336 336 337 336 339 342 342
304 301 305 305 307 305 307 306 307 306 305 304 306 308 305 305 302 308 307 309 311 323 324 329 331 333 335 336 339 339 337 331 331 337 340 342 343 343 344 343 343 344 344 337 335 338 341 338 340 340 340 344 342 343 341 344 346 345 347 345 341 345 342 341 341 343 343 341 343 343 345 342 341 339 341 341 341 343 344 345 342 337 337 338 337 337 335 334 333 336 335 335 334 334 337 344 343
302 301 304 305 306 307 307 307 306 306 306 307 306 304 304 305 305 306 306 309 311 313 317 329 332 332 335 337 338 339 335 335 338 338 341 341 342 346 346 344 345 342 334 334 337 336 340 341 339 340 340 341 340 341 341 344 347 345 342 343 341 343 340 340 340 341 341 341 341 342 345 342 342 341 341 341 343 342 342 341 339 341 336 335 337 338 337 334 334 336 334 334 335 337 340 340 340
303 303 305 305 304 306 307 306 306 306 306 307 305 304 305 306 308 305 307 309 311 315 317 328 329 330 331 331 336 338 337 336 339 338 341 343 345 344 343 342 343 340 334 336 336 338 340 340 340 341 342 342 340 340 340 341 343 342 341 342 343 341 342 342 340 340 340 340 340 341 344 344 342 341 342 342 342 339 340 339 339 338 341 341 337 338 339 337 335 336 337 337 332 333 335 337 339
307 304 304 304 305 305 306 305 306 306 306 307 304 303 304 307 305 300 307 309 311 313 314 320 329 328 328 329 336 338 338 337 336 339 342 344 343 342 343 343 341 336 334 335 336 338 339 340 339 338 341 342 341 340 339 338 342 342 342 345 344 343 344 343 340 340 341 342 342 343 343 343 341 341 342 340 341 340 338 337 336 337 337 342 340 340 346 339 338 337 342 337 333 330 336 338 337
305 305 305 305 306 306 305 306 306 307 305 306 305 303 304 305 305 302 306 310 312 312 313 317 323 328 327 328 332 337 338 339 338 339 340 340 339 340 342 341 338 332 330 333 335 337 338 339 339 339 340 342 341 337 338 335 339 340 342 343 341 341 342 343 342 342 342 343 343 342 343 343 342 343 342 340 339 338 337 337 338 338 339 341 342 342 343 343 342 339 336 338 342 340 338 338 339
305 304 300 302 304 302 305 303 304 306 303 306 306 302 301 302 300 305 307 309 312 313 313 316 323 328 325 330 333 335 336 338 338 339 341 341 343 343 342 344 334 331 332 335 337 339 339 340 338 340 341 343 341 337 336 337 339 340 341 341 339 339 341 342 341 341 341 342 342 342 343 342 341 340 341 339 340 337 336 339 341 340 343 345 346 344 345 345 344 344 341 343 342 336 333 336 339
305 304 301 300 300 299 303 305 305 304 305 306 305 293 297 300 303 306 308 308 312 312 312 318 324 324 326 329 331 332 335 331 331 338 341 342 343 344 344 341 334 331 333 338 338 339 340 340 341 341 341 340 340 339 338 337 337 340 343 341 338 338 338 338 338 341 342 342 342 343 343 342 342 341 341 338 339 340 340 338 337 340 342 343 344 347 344 340 345 343 342 343 339 337 337 336 336
299 302 302 297 295 295 303 304 304 302 306 305 305 294 296 300 304 306 308 308 309 310 310 324 326 327 326 330 329 327 328 327 327 330 339 345 345 344 346 338 334 333 333 336 338 340 340 341 342 341 340 340 340 341 338 337 339 341 342 340 340 340 338 337 337 340 340 341 342 341 342 341 341 341 343 340 339 340 337 338 340 343 344 344 342 346 347 343 344 341 345 338 334 336 338 340 336
301 296 294 298 295 297 302 305 304 300 304 306 302 295 296 300 303 306 308 308 309 309 310 323 324 325 324 327 329 327 328 330 329 329 332 343 344 343 344 336 334 334 335 337 339 340 339 341 342 342 340 340 339 340 342 342 343 342 339 338 336 336 339 338 339 340 340 341 341 340 342 342 341 341 343 342 344 339 338 339 341 345 344 343 345 346 344 342 340 339 340 340 334 333 335 338 338
300 297 295 295 297 297 300 303 305 305 303 304 302 295 299 299 305 307 308 308 309 308 309 320 323 324 323 323 327 329 329 330 329 329 334 340 342 342 344 335 335 336 339 339 338 339 340 340 340 339 340 340 341 341 342 342 342 340 340 337 336 337 336 338 338 339 340 340 340 340 341 340 339 339 339 341 342 340 340 338 339 341 344 344 345 343 343 343 337 338 338 340 337 335 335 334 332
296 299 295 297 296 298 296 302 305 305 304 300 302 298 298 300 305 307 308 308 308 308 310 316 321 321 321 323 324 327 328 329 328 328 335 339 342 342 343 338 334 337 337 339 340 340 339 340 338 338 341 341 344 343 343 342 341 340 338 339 336 337 337 338 338 338 338 339 339 338 339 338 338 337 338 339 335 335 339 341 340 340 341 345 341 340 340 340 339 338 336 339 338 334 334 332 330
295 296 296 296 298 298 298 297 302 304 303 300 300 299 299 301 304 306 308 309 308 308 308 316 316 319 319 321 326 326 327 328 328 330 334 338 337 340 340 341 336 338 338 339 339 341 342 341 338 339 340 341 342 343 342 342 341 340 339 337 335 336 337 339 338 337 337 339 339 340 340 339 337 336 338 337 336 333 337 341 341 341 342 341 339 339 338 334 337 337 337 335 338 337 335 330 330
298 299 298 298 296 297 297 301 303 304 300 299 299 297 299 301 302 304 308 308 307 307 309 309 315 319 322 326 324 322 323 322 327 332 334 337 336 340 341 341 337 338 339 339 338 340 341 342 341 341 342 342 342 342 340 339 338 337 335 336 336 335 335 336 336 336 336 337 338 337 339 338 336 335 336 336 334 333 341 340 339 340 342 339 337 337 335 334 333 333 334 336 334 335 336 332 333
301 300 299 298 299 299 302 303 303 305 301 299 300 300 300 301 302 304 305 307 307 307 307 308 309 317 321 321 320 324 326 326 329 330 329 337 334 338 343 340 335 336 337 337 338 339 341 340 340 339 341 342 341 338 337 337 335 336 336 333 332 334 335 335 334 334 335 337 338 337 336 335 337 337 338 338 337 339 341 342 342 341 340 340 339 338 335 334 334 334 334 335 334 333 332 332 333
299 299 298 298 299 297 302 301 302 304 302 299 301 300 299 301 303 304 306 305 304 305 306 308 308 309 320 320 321 321 324 329 326 327 332 328 330 340 343 341 334 333 332 334 337 339 341 340 339 340 340 340 340 339 338 338 338 337 335 335 335 335 332 333 332 333 333 334 336 337 335 335 335 336 336 337 340 341 339 339 340 339 338 336 334 336 334 333 334 333 335 332 336 333 329 332 332
299 298 298 297 298 300 302 302 304 304 301 298 300 298 299 301 303 304 304 304 305 308 309 308 309 309 310 318 318 320 323 325 327 325 330 325 331 337 339 340 337 333 333 333 337 338 340 340 339 340 340 339 339 340 339 338 340 341 337 333 337 335 335 336 336 336 336 335 337 338 335 335 335 335 336 337 339 340 339 339 338 337 336 336 334 333 332 332 333 332 333 331 330 332 330 331 330
299 298 296 295 299 296 294 300 302 302 302 299 300 298 299 302 303 304 306 305 306 306 307 308 309 308 309 310 312 323 323 324 324 323 323 329 335 334 332 330 332 333 331 334 334 336 340 340 340 340 339 339 339 340 339 341 340 341 339 338 340 338 335 337 338 338 337 336 336 336 336 337 338 337 336 337 338 339 339 338 338 337 335 337 336 333 333 329 331 332 333 333 331 327 327 328 332
300 299 297 297 297 298 297 297 301 303 303 303 300 298 297 299 299 301 305 306 306 306 306 307 308 309 310 312 312 317 323 322 323 327 332 333 332 330 329 330 332 333 333 335 336 337 340 340 340 340 339 340 340 339 340 340 338 337 337 338 338 336 336 334 334 333 335 335 336 336 337 339 338 338 339 338 338 337 337 338 337 337 338 339 337 336 334 332 330 330 332 333 331 330 327 330 331
297 299 298 297 298 298 299 300 298 296 296 300 298 291 292 298 299 299 301 303 303 305 304 304 307 308 308 309 311 316 323 326 327 327 332 333 331 329 331 332 334 337 339 331 332 334 339 340 340 341 340 340 339 339 340 339 337 335 333 331 330 330 329 328 328 329 331 332 333 335 337 337 338 338 338 339 338 337 337 338 338 336 337 339 338 339 336 333 331 331 331 332 331 334 330 328 326
294 296 300 299 298 298 298 297 297 292 290 298 302 291 288 297 298 299 301 301 301 304 304 304 305 306 307 308 308 311 321 326 327 327 333 333 332 331 331 335 337 338 330 326 328 328 330 338 340 339 339 339 339 338 339 338 336 335 334 332 332 331 329 330 333 334 333 333 334 334 334 337 337 338 337 336 337 337 338 338 339 338 337 337 338 339 336 332 332 330 332 333 332 333 333 327 326
293 300 301 301 300 298 297 297 296 294 299 300 299 297 291 290 296 301 302 301 302 303 304 305 305 306 307 308 308 310 322 328 323 327 334 334 334 333 333 337 337 334 328 327 327 329 329 332 338 339 338 337 338 338 339 339 336 336 334 333 333 332 331 332 333 333 335 334 334 333 335 338 336 337 337 336 337 337 337 339 339 339 339 338 336 336 336 334 334 333 334 335 334 332 330 328 328
297 301 301 299 299 299 299 297 296 296 295 290 294 297 291 290 296 301 301 298 299 300 302 304 305 306 307 308 309 309 317 326 324 326 332 334 335 335 336 336 338 332 330 327 329 330 331 332 337 339 337 337 337 338 338 338 337 336 336 334 333 334 334 334 334 333 333 335 333 334 335 334 338 339 338 338 337 337 338 339 338 339 338 337 334 334 336 335 334 335 335 335 332 333 332 333 331
300 302 302 302 301 300 299 296 295 295 292 287 292 296 289 290 296 297 301 298 298 300 302 303 306 306 308 310 314 317 313 323 327 329 332 335 335 336 338 338 337 333 332 331 332 333 333 333 335 338 336 337 337 337 338 337 338 337 336 335 334 334 334 334 334 332 333 333 332 331 332 331 335 339 339 339 338 337 338 338 339 338 336 337 337 335 336 335 335 335 335 335 333 331 331 333 331
304 302 299 299 298 298 298 297 295 293 286 289 294 296 293 287 294 296 296 299 300 301 303 305 306 307 312 314 314 316 320 323 323 326 330 335 337 337 337 336 335 334 334 333 332 333 335 337 337 337 336 337 337 337 337 337 338 337 335 335 335 332 333 333 332 330 331 330 331 330 330 330 332 335 337 340 341 340 339 340 338 338 338 340 341 335 335 335 335 334 332 334 335 333 332 331 329
301 298 296 296 295 297 295 294 295 286 284 291 295 295 295 286 292 297 301 303 303 304 304 310 309 311 313 314 314 315 321 323 324 328 332 332 333 335 336 335 335 335 335 333 334 336 333 333 338 337 337 337 337 337 338 337 337 337 337 337 335 334 334 332 328 329 329 328 331 329 328 328 330 336 337 339 337 337 341 340 341 342 338 341 340 337 334 336 336 334 332 333 335 334 332 330 329
299 297 296 290 287 288 284 289 284 285 284 292 296 296 292 291 295 298 300 302 307 308 307 307 308 309 312 314 316 316 318 324 323 324 329 331 332 332 333 334 335 335 334 333 332 332 335 335 337 336 335 337 337 337 337 337 337 336 337 336 336 336 335 335 331 330 330 330 330 331 331 330 334 334 335 334 337 339 339 339 340 338 340 341 340 337 335 333 338 336 332 334 334 332 331 331 331
297 295 293 289 284 283 281 285 287 287 292 295 295 297 291 294 298 302 303 307 309 310 310 310 311 313 316 316 317 318 319 323 323 324 326 328 329 332 333 333 334 334 332 330 331 332 331 335 336 335 335 337 337 337 337 336 337 337 338 336 335 334 333 334 338 333 333 330 331 331 334 334 333 335 334 335 336 336 337 338 337 337 338 338 338 338 338 336 334 336 335 332 332 333 332 331 330
297 299 296 292 290 286 281 284 282 284 287 293 296 292 288 289 293 303 307 309 309 311 311 314 317 318 318 317 317 318 318 320 323 323 323 321 322 324 326 332 334 334 334 332 334 333 333 335 335 334 334 335 335 336 336 336 336 338 338 337 334 335 333 334 335 335 335 334 333 334 334 335 334 333 334 336 335 336 336 336 338 337 337 338 336 336 337 335 334 332 333 333 330 332 331 330 330
299 299 299 293 291 295 286 289 289 288 287 288 291 290 296 296 303 307 309 309 310 313 313 315 315 316 318 317 317 318 320 320 322 322 320 320 321 322 322 325 324 321 323 329 331 330 329 334 335 335 334 335 335 336 336 336 336 338 338 337 335 336 333 334 336 336 339 337 335 334 334 334 335 335 335 336 337 337 335 335 335 335 337 337 340 338 334 333 336 333 332 333 330 333 331 329 330
297 297 292 294 300 296 291 289 294 290 288 285 293 294 296 301 302 304 305 306 308 311 313 314 313 312 313 314 316 318 320 318 320 320 317 317 318 320 321 321 322 324 323 324 329 330 331 334 334 334 334 335 336 336 336 336 337 336 337 338 337 335 333 335 335 336 337 338 337 335 335 335 336 335 335 338 337 338 336 336 333 333 336 337 335 338 334 333 334 333 334 334 331 331 330 329 331
297 292 296 301 302 300 293 285 288 287 284 285 292 289 291 292 287 301 305 306 307 308 311 313 314 312 310 311 313 313 317 319 319 319 319 318 319 319 321 321 321 323 325 327 328 332 332 335 334 334 334 334 335 335 336 336 336 336 336 337 337 336 336 335 336 334 337 336 336 336 334 334 334 335 334 336 337 336 336 334 336 332 335 336 335 333 333 333 336 334 333 331 331 330 329 329 329
297 296 303 294 288 287 293 289 282 282 282 285 289 291 292 294 293 300 302 304 306 306 308 309 309 308 307 310 310 312 318 318 318 317 317 319 321 323 321 322 323 322 323 322 330 334 334 335 334 335 333 335 335 335 335 336 335 334 336 335 334 335 334 335 334 335 335 333 333 333 334 334 334 334 333 334 334 334 334 335 334 332 333 334 334 334 333 332 333 333 335 331 329 329 329 327 327
303 302 298 301 296 293 289 290 290 289 284 284 286 290 286 298 299 302 302 305 307 306 308 308 309 308 310 311 313 314 315 315 316 317 318 319 320 320 321 322 322 321 323 326 328 330 332 334 334 334 335 335 334 334 335 334 333 332 334 334 333 333 333 334 334 334 334 333 332 332 332 332 333 332 333 332 332 331 332 331 333 331 332 332 332 332 333 331 332 333 333 332 332 332 331 327 326
296 295 294 296 297 299 296 298 292 288 285 285 284 284 290 297 302 303 305 307 308 309 307 309 310 310 312 311 312 313 314 314 315 316 318 318 318 319 321 321 320 322 323 325 323 327 329 332 333 333 333 333 333 333 335 335 333 331 332 332 332 332 334 333 333 334 332 332 332 331 331 332 331 331 331 334 332 330 330 330 328 330 328 331 331 332 334 333 331 332 333 333 331 330 329 330 329
296 295 293 294 293 291 287 286 296 293 289 286 284 283 293 300 306 304 306 308 309 310 308 309 310 311 312 313 313 312 313 314 315 316 317 318 319 319 321 321 320 320 321 321 324 325 325 326 331 332 333 331 332 333 333 334 334 333 331 329 332 332 332 331 332 332 331 331 331 331 332 330 331 329 329 327 329 334 332 332 328 326 331 328 329 330 332 333 329 330 331 333 332 330 328 329 328
Wind_Speed
9 8 8 8 7 8 7 6 5 6 6 10 10 10 9 3 8 6 4 6 4 8 10 5 2 4 5 8 9 13 12 11 7 4 5 4 5 12 14 14 16 14 14 11 10 11 13 13 14 15 15 16 17 17 17 17 15 15 15 15 15 16 15 16 15 16 15 14 14 14 14 13 13 12 12 11 10 11 11 11 10 12 13 12 12 13 12 13 14 14 14 14 13 12 12 12 12
8 8 9 7 8 6 6 8 5 5 8 9 12 11 7 4 5 8 6 5 7 6 5 6 4 6 3 6 7 4 16 12 10 10 9 8 10 10 13 14 14 15 13 11 10 10 11 13 14 14 16 16 16 17 17 16 16 15 15 15 15 15 14 15 15 15 15 14 14 14 14 13 12 12 11 11 11 11 11 10 11 12 12 12 13 12 12 12 12 13 14 14 13 13 12 12 11
8 8 8 7 7 7 7 6 7 7 8 10 11 9 5 9 5 8 12 9 7 6 4 3 5 5 7 4 7 2 9 12 13 11 8 11 12 8 10 12 14 13 13 10 10 10 10 12 13 15 16 16 17 16 16 16 15 15 15 15 15 15 15 14 14 14 14 13 13 14 13 12 12 11 10 10 11 11 11 7 12 12 11 11 12 11 11 11 11 13 14 13 13 13 13 12 11
9 9 9 6 5 7 6 5 9 9 9 9 7 7 4 7 10 6 3 7 2 3 3 6 7 6 10 1 9 14 9 8 11 11 8 9 8 11 11 12 12 14 11 9 10 10 9 12 13 14 16 16 16 16 16 16 16 16 15 15 15 16 15 15 14 14 14 13 13 13 14 12 10 10 9 9 11 12 10 7 10 11 10 10 11 10 10 10 11 12 13 14 13 13 12 12 11
9 9 9 8 8 6 7 6 8 8 10 9 3 7 8 7 11 5 6 3 5 8 6 4 7 6 11 8 7 5 5 9 8 8 9 10 11 9 13 15 11 12 11 11 10 10 12 15 13 14 15 16 16 15 15 16 16 16 16 15 16 16 16 15 14 14 13 13 13 13 13 12 11 10 9 9 12 12 10 9 8 10 9 9 9 8 8 8 9 10 11 13 12 13 11 11 10
9 9 8 7 6 6 7 7 8 11 10 9 10 7 7 7 7 6 3 5 3 1 3 8 8 7 7 9 7 7 3 3 7 11 11 9 12 11 9 11 12 11 13 12 11 10 12 13 14 13 14 15 15 15 16 17 17 16 16 16 16 16 15 15 14 14 13 13 13 12 12 12 11 11 10 9 11 11 10 8 11 9 10 10 9 8 8 8 8 9 10 11 12 11 10 9 8
6 7 6 7 8 6 7 9 9 10 11 12 10 8 7 6 6 3 5 6 6 3 4 7 9 9 9 8 12 9 9 7 7 10 10 12 12 12 10 9 11 12 12 10 10 11 15 13 14 14 14 15 15 15 17 17 16 17 17 16 15 15 15 14 14 13 13 12 12 12 12 12 12 10 10 9 10 10 9 9 11 9 7 9 9 8 8 8 8 8 10 10 10 10 9 8 6
8 9 5 7 6 6 9 9 11 9 0 6 6 7 10 8 1 2 6 3 6 8 10 5 6 6 10 7 8 5 12 12 15 15 14 13 13 11 10 10 11 12 12 10 11 10 16 13 14 14 15 15 16 15 16 16 16 16 17 15 15 14 13 14 13 12 13 12 12 12 12 13 11 11 10 10 9 8 9 11 11 10 10 9 9 8 8 9 10 10 10 9 8 8 8 7 5
8 8 6 8 9 6 9 9 10 10 9 3 8 9 3 2 4 9 7 7 5 6 7 6 3 7 11 15 10 8 10 13 14 15 14 15 13 11 8 9 11 11 11 12 13 12 13 12 13 14 14 15 14 15 15 15 16 16 15 14 13 13 12 12 12 12 11 10 11 12 13 12 10 8 8 8 8 8 10 12 12 10 11 10 10 10 10 10 10 9 9 8 7 6 6 5 5
7 7 7 6 6 9 9 10 9 9 6 12 5 10 3 7 6 5 8 9 8 3 6 5 4 5 16 13 10 5 7 11 13 14 13 13 13 13 12 12 11 10 14 12 12 12 11 15 13 13 14 14 15 14 14 15 15 14 14 13 13 12 12 11 11 12 11 11 10 10 11 11 9 8 9 8 9 11 11 12 11 11 12 11 11 10 10 9 9 9 9 7 6 7 7 5 3
7 8 7 8 8 8 9 9 10 10 3 8 7 6 7 5 4 6 5 8 11 2 8 3 6 12 15 11 7 2 9 10 12 14 13 13 11 12 13 12 11 9 13 13 11 11 12 11 15 12 13 14 14 14 14 14 14 14 13 13 12 11 11 11 12 12 12 11 11 12 12 12 11 13 12 11 12 12 13 13 11 12 11 11 10 10 9 9 9 9 8 6 6 7 7 6 3
8 8 7 8 7 8 8 9 10 7 5 2 3 7 7 5 2 7 7 5 7 7 9 10 4 21 14 9 4 6 9 10 10 12 13 12 11 13 12 11 11 12 12 13 12 10 11 11 11 14 12 12 12 13 13 13 13 13 12 12 12 11 11 11 11 12 11 12 12 11 11 12 13 14 13 13 13 14 14 13 11 12 11 10 9 9 8 8 9 8 7 7 8 8 8 6 3
9 7 8 8 8 8 10 11 8 9 4 1 8 4 3 3 3 6 7 8 9 5 6 12 18 9 5 6 6 6 8 6 10 11 12 10 11 11 11 12 13 14 13 13 12 12 11 11 10 11 11 13 12 12 13 13 12 12 12 12 12 11 11 11 12 11 11 11 9 11 12 12 13 13 13 13 13 14 14 12 12 12 10 9 9 8 8 7 8 8 7 7 8 9 7 5 3
8 7 7 8 8 11 10 9 10 4 3 12 7 7 2 6 5 3 8 8 8 8 11 9 15 17 10 9 7 5 5 3 6 11 10 11 11 12 12 11 13 13 13 12 12 12 11 10 9 9 11 10 11 11 12 12 13 12 12 12 12 11 11 11 11 10 10 11 9 8 10 12 12 13 13 13 13 13 13 12 12 11 10 9 9 8 7 7 7 7 8 8 8 8 7 4 3
9 6 6 7 9 9 9 10 8 6 2 7 8 2 6 4 2 3 7 11 8 8 5 14 6 2 4 6 6 7 9 11 12 11 10 10 11 11 13 12 11 13 12 12 12 10 10 9 11 10 11 11 11 8 9 10 13 12 12 12 12 11 11 11 11 11 11 12 10 9 9 10 11 12 12 12 12 13 13 12 12 11 10 9 9 8 7 7 6 7 7 8 9 8 7 3 2
7 7 6 7 8 9 8 9 9 8 7 8 2 10 6 5 7 6 4 8 6 5 5 4 6 5 7 4 9 12 14 13 11 11 10 12 11 10 11 11 11 12 12 11 11 9 9 9 9 10 10 10 9 8 9 10 11 12 13 13 12 12 13 11 11 11 12 11 12 12 10 9 10 10 13 10 12 12 11 9 11 11 11 11 8 7 6 6 7 6 7 8 9 8 7 3 2
7 6 7 7 10 10 8 7 3 6 8 9 4 7 5 7 6 4 3 7 9 2 6 11 10 7 6 1 13 15 14 11 11 12 10 10 9 9 8 7 7 8 8 12 10 10 11 10 11 10 11 11 11 10 9 9 10 13 12 13 13 13 13 12 12 13 11 11 10 11 10 6 5 6 7 7 10 7 8 11 11 11 10 10 9 6 6 7 7 6 7 7 8 8 7 5 3
7 7 7 8 9 11 7 12 9 7 9 5 7 5 5 7 6 5 3 8 7 4 9 14 14 10 5 7 15 16 15 13 12 13 12 11 8 9 9 9 8 10 10 10 12 12 11 11 12 10 10 11 10 8 7 8 9 11 10 9 9 10 10 10 10 8 9 6 9 7 5 4 5 1 3 7 4 7 9 11 11 10 9 9 9 7 6 7 7 6 6 8 9 8 8 3 2
8 6 8 10 9 5 7 6 10 6 9 4 3 2 5 5 4 4 10 5 4 6 14 10 8 6 9 11 13 15 14 12 12 12 14 13 9 11 9 8 9 11 10 10 10 12 10 10 10 11 11 11 11 9 8 8 10 8 10 9 8 10 9 8 7 7 7 8 7 6 5 3 5 3 3 1 5 7 8 10 10 10 9 9 8 7 6 7 7 6 6 7 8 10 6 3 3
9 9 9 9 9 8 5 3 6 7 7 5 6 4 3 7 7 6 9 11 3 6 10 10 7 4 7 11 11 12 13 13 12 12 14 13 12 11 10 11 10 10 11 11 10 10 11 10 11 11 13 11 11 8 8 7 7 7 7 7 7 6 7 7 7 7 7 7 5 6 5 5 5 3 8 10 10 6 6 9 11 10 9 7 8 5 4 4 6 5 6 6 5 5 4 3 3
8 10 10 11 6 8 4 4 7 6 5 7 2 5 4 9 7 6 9 5 8 11 11 12 9 9 11 10 12 12 12 14 13 11 10 12 9 9 9 9 9 9 8 9 10 9 10 7 9 9 10 11 8 5 6 7 7 5 6 7 6 5 6 4 4 5 5 4 7 6 5 5 4 4 4 5 4 5 5 5 5 5 4 3 6 3 2 3 3 4 3 4 5 5 4 2 1
6 10 12 13 13 4 6 7 5 6 5 7 9 8 10 8 5 12 11 9 4 10 12 13 13 12 11 10 13 13 15 12 12 9 13 11 9 7 7 7 7 7 7 7 10 11 7 6 2 5 7 5 4 5 5 5 8 4 6 6 6 6 4 6 6 4 5 5 5 6 5 6 5 4 4 4 3 5 5 5 4 4 4 4 5 2 3 3 3 4 5 5 4 4 2 2 1
9 8 12 12 10 8 3 2 2 5 7 8 7 6 7 5 10 9 9 10 7 11 8 13 15 13 11 9 11 12 13 8 6 12 12 11 9 9 8 8 7 9 6 7 6 11 12 9 8 9 7 5 8 8 5 2 4 5 3 5 4 3 5 6 4 3 5 5 5 5 6 6 5 4 4 4 3 3 4 5 5 5 5 4 5 4 4 3 4 4 3 4 4 4 5 3 2
10 9 8 11 10 11 8 7 4 2 4 8 8 8 6 7 9 8 6 4 8 12 7 15 17 12 14 13 12 12 9 9 13 11 12 9 9 8 7 7 7 6 7 14 9 7 6 5 6 6 7 5 8 8 4 4 5 5 4 6 5 3 4 6 3 2 4 6 4 3 4 6 5 5 4 5 4 2 1 1 2 5 5 3 4 6 6 4 5 4 4 5 5 4 4 2 2
11 11 11 12 7 7 9 8 7 7 9 6 8 10 10 10 9 12 4 8 8 2 5 17 14 13 12 11 10 10 10 11 11 10 10 9 9 6 7 6 6 6 13 11 7 8 6 5 7 7 8 9 10 4 1 2 4 4 5 5 5 1 5 5 5 3 3 6 4 3 3 5 5 5 5 4 3 2 1 0 2 2 5 5 5 5 4 5 6 5 5 5 4 2 4 2 2
12 12 10 10 10 7 6 6 7 8 6 6 9 10 10 11 10 12 10 10 10 3 7 17 12 9 7 9 9 9 8 9 6 9 10 7 6 8 7 8 7 10 10 8 8 5 5 6 7 8 8 6 9 9 5 4 3 5 2 4 6 4 3 7 6 3 1 5 4 3 3 3 5 5 4 3 3 3 1 1 2 4 2 3 4 3 2 5 5 3 4 3 4 3 5 3 3
6 7 10 11 11 11 8 10 10 8 7 8 10 10 11 10 8 9 11 17 9 5 8 12 17 11 8 6 8 7 8 9 11 9 9 6 7 8 8 7 8 13 9 3 4 7 6 8 8 6 6 7 8 8 6 6 5 5 4 4 5 5 4 6 6 3 2 3 5 4 4 3 4 4 4 3 3 3 3 3 5 5 5 2 3 3 3 4 4 4 2 3 4 4 6 4 3
10 8 8 9 9 10 11 10 8 6 8 9 10 11 10 11 10 10 12 13 7 7 7 5 8 16 7 8 8 8 7 8 9 11 13 10 8 8 8 7 11 10 8 5 3 6 6 9 9 8 6 6 11 9 5 7 8 5 4 5 6 5 4 5 5 5 4 4 6 5 4 4 4 4 4 4 3 3 4 5 4 3 2 3 2 1 1 1 2 3 5 3 1 8 6 5 3
10 7 9 11 12 11 12 14 12 10 9 9 8 10 11 11 13 11 18 15 11 8 7 7 7 13 8 7 7 6 5 9 13 11 10 8 6 6 7 7 14 9 5 5 6 6 9 9 8 7 6 7 11 10 5 6 9 8 5 6 6 5 5 5 6 5 5 5 5 5 4 4 3 3 4 5 3 5 5 2 0 2 2 1 0 1 1 2 2 2 2 3 4 5 6 5 3
9 9 8 10 11 12 14 14 12 11 8 11 5 7 8 13 15 15 17 15 9 8 7 6 11 8 7 8 5 2 2 6 10 8 8 7 6 6 6 11 14 9 5 5 6 7 7 7 6 6 5 9 11 11 8 5 9 7 7 5 5 6 4 4 4 4 5 5 5 4 4 4 3 2 2 3 5 3 3 2 4 2 2 2 2 1 2 3 1 1 1 1 6 3 2 2 6
8 8 9 8 8 10 13 13 14 12 9 7 4 8 8 13 15 19 16 18 10 8 10 15 10 9 10 8 5 3 3 7 6 16 9 5 4 4 5 16 13 10 5 5 8 9 9 7 6 6 7 10 10 11 10 5 6 6 7 6 4 3 6 6 5 5 4 4 4 4 5 4 2 2 3 5 4 4 4 5 2 1 2 2 2 1 2 3 1 2 2 5 4 4 2 2 3
8 7 9 9 9 10 12 14 13 10 8 8 8 7 10 13 15 15 20 17 11 9 10 13 12 10 9 7 7 5 3 5 3 12 16 7 5 5 5 15 12 9 10 8 8 9 10 9 8 8 8 9 9 9 8 7 7 6 7 8 5 3 2 6 6 5 5 5 4 4 4 5 5 3 3 4 2 3 4 4 2 1 1 2 1 2 2 1 3 3 3 4 5 3 4 0 4
9 9 8 9 9 9 6 12 13 12 7 8 10 8 9 11 5 8 18 12 8 9 9 13 12 11 8 8 8 6 5 6 10 14 15 7 6 5 5 18 10 10 6 8 10 11 11 10 7 7 8 8 9 9 9 8 6 6 7 6 7 7 6 5 6 5 5 5 6 5 5 4 4 3 2 3 1 2 3 4 3 2 1 1 2 1 1 2 2 2 3 4 4 2 3 6 3
9 10 8 10 11 8 8 14 13 14 8 8 12 9 11 14 4 2 5 4 11 11 7 15 13 11 11 8 8 7 6 5 8 8 7 6 5 9 6 17 14 10 7 6 9 9 11 10 6 5 7 7 6 8 7 7 7 7 6 7 6 5 5 4 5 5 5 4 5 5 5 4 3 2 1 3 3 4 4 2 4 3 3 2 2 1 3 3 3 1 3 4 2 3 3 5 6
8 9 9 8 11 14 6 10 13 7 11 8 8 10 11 12 9 8 8 8 9 8 7 10 12 13 10 8 6 4 5 7 7 6 6 6 11 11 7 14 15 10 7 7 9 7 9 9 7 6 6 7 6 7 8 6 7 6 5 7 8 6 4 1 5 4 4 3 5 6 5 4 4 4 2 3 2 2 8 2 2 3 2 3 3 0 4 1 1 2 4 3 0 3 5 8 5
12 13 12 11 7 8 8 3 16 9 11 7 9 8 6 10 13 8 10 12 11 11 9 10 11 12 14 10 8 5 4 6 5 4 9 9 9 9 7 10 12 8 7 5 9 8 8 9 10 7 6 7 7 6 7 7 6 6 6 6 5 6 9 6 4 4 4 4 5 4 5 5 5 4 4 4 5 9 5 3 3 4 3 3 4 2 4 2 2 2 4 2 4 3 7 6 5
14 13 11 12 10 12 12 13 14 9 5 5 4 7 8 10 11 12 12 11 11 11 9 8 10 12 11 11 9 9 6 4 6 3 14 5 10 9 6 10 10 9 6 5 8 10 9 10 9 9 8 8 6 7 6 6 8 7 6 7 8 6 7 7 9 5 3 4 5 7 5 6 6 6 5 5 7 6 2 0 1 2 3 2 3 3 6 3 3 2 2 1 4 5 5 5 5
12 8 10 9 9 7 7 3 16 5 5 6 6 10 12 12 11 15 12 10 15 10 9 9 10 12 11 11 14 13 9 4 2 2 6 7 11 8 3 8 13 9 5 7 8 9 9 12 11 8 9 8 7 7 7 6 5 5 6 5 5 7 8 8 7 8 7 4 4 4 8 7 7 6 5 5 5 4 3 2 2 2 3 3 3 3 6 3 2 2 3 3 2 2 3 5 5
10 6 10 10 8 7 6 13 5 5 4 2 5 10 12 11 12 12 12 10 13 9 7 8 11 12 11 14 17 13 11 8 7 7 1 11 15 4 6 5 9 8 7 7 7 10 11 11 10 10 8 7 7 6 6 6 4 4 5 4 4 4 5 5 7 8 8 8 8 8 6 7 8 7 7 6 4 4 4 3 3 2 2 4 3 4 6 5 4 4 5 4 4 1 2 2 4
3 6 9 10 9 8 7 10 10 13 7 4 4 10 9 12 12 11 9 11 11 16 12 13 13 13 12 12 11 19 20 17 18 15 13 12 5 5 6 7 7 9 7 7 7 9 9 8 10 9 9 7 7 6 6 5 5 4 6 5 4 4 6 6 7 7 7 7 7 8 8 7 7 7 7 7 5 5 4 4 3 3 3 2 4 4 7 7 4 3 3 4 6 5 4 3 4
9 10 10 11 12 11 12 10 10 7 2 7 4 8 10 10 11 10 10 11 12 14 17 12 12 13 12 11 12 9 18 17 18 21 20 12 9 7 7 8 9 12 14 9 5 8 6 8 9 10 10 9 7 7 7 7 7 6 5 6 6 7 6 5 6 6 6 6 6 6 7 6 5 4 4 5 5 5 5 4 3 3 2 3 3 4 7 7 5 3 3 4 6 5 5 3 2
9 11 13 14 13 14 13 12 12 8 9 11 9 7 9 10 16 16 13 12 16 15 17 17 11 11 13 12 11 6 19 15 14 16 17 15 12 10 9 9 9 8 8 7 2 7 3 7 9 9 9 8 8 9 9 8 8 8 7 7 7 6 6 5 6 8 8 6 6 3 3 5 6 5 2 2 4 4 4 3 3 3 3 2 2 2 6 7 8 4 6 4 5 3 4 4 3
9 8 13 14 14 16 14 15 11 11 11 4 9 11 6 7 11 11 12 15 17 15 16 16 14 11 12 12 11 9 20 12 11 12 13 13 12 12 10 10 8 6 12 9 1 5 14 7 9 9 9 8 8 9 11 8 8 8 9 8 6 7 7 5 4 4 5 4 3 3 4 4 5 5 3 4 3 4 3 4 4 3 3 5 4 4 6 8 8 9 7 6 5 4 4 5 5
9 9 10 14 15 13 14 15 12 9 7 11 13 9 8 10 8 6 12 13 11 9 7 11 14 11 12 12 12 9 17 14 15 17 17 16 16 14 14 10 8 9 11 12 11 8 10 11 7 10 8 9 8 8 11 8 8 8 8 6 7 6 6 6 6 5 4 4 4 3 2 1 3 4 4 5 4 5 4 3 3 3 2 2 5 5 5 7 7 7 6 6 5 6 1 4 6
8 10 13 6 7 7 8 8 8 10 10 11 10 13 10 10 9 11 14 15 12 8 12 14 13 14 9 9 11 12 14 18 19 15 17 17 15 14 13 12 11 11 10 10 11 11 11 9 8 8 10 9 8 9 9 8 7 8 7 6 7 5 6 6 6 5 4 3 4 2 1 1 3 3 4 5 5 5 4 4 4 3 3 3 3 3 5 5 7 7 6 5 5 7 7 5 5
10 14 17 4 3 7 10 8 9 8 8 10 11 9 10 10 7 7 5 9 11 10 13 12 14 8 4 6 10 9 6 18 18 18 17 14 14 14 12 12 12 11 11 11 9 7 10 11 10 10 11 9 9 10 9 9 8 7 7 7 8 6 5 6 6 5 5 4 4 3 2 2 2 3 2 3 5 7 6 4 3 4 4 3 2 3 6 3 6 5 4 4 6 5 4 3 6
6 10 10 6 6 7 8 8 8 7 8 12 12 13 11 10 6 6 6 5 8 10 7 6 9 7 9 11 13 14 16 13 10 12 3 8 8 9 11 12 11 12 11 11 9 9 10 11 10 11 10 9 11 10 10 10 8 7 7 7 8 8 8 8 7 6 5 4 5 3 3 2 3 4 3 2 2 3 4 3 3 3 3 2 1 6 3 6 6 7 6 3 4 6 5 4 4
9 7 5 5 7 8 8 8 9 8 10 12 13 14 14 11 5 10 9 10 11 5 6 13 12 14 12 9 10 14 13 11 11 10 12 10 9 7 8 9 10 12 11 12 10 7 5 6 9 10 11 10 11 11 9 9 7 8 6 7 8 7 8 8 8 8 7 7 5 4 2 2 6 4 4 2 3 4 1 2 2 1 2 1 1 4 6 3 4 7 6 5 5 5 5 4 4
9 9 7 8 7 5 6 7 8 9 9 8 10 14 11 12 11 11 9 8 17 16 14 12 11 8 12 12 14 11 9 8 7 5 8 8 10 10 10 9 9 10 11 14 11 10 9 8 10 10 11 10 11 11 10 10 7 8 7 7 6 6 6 8 12 10 9 6 5 5 7 9 5 4 3 4 3 3 4 2 3 3 0 1 1 6 5 5 2 6 7 5 4 5 6 6 6
9 9 8 8 8 7 6 7 4 7 10 11 12 11 11 7 6 2 11 14 12 12 10 11 11 13 13 10 10 11 11 7 5 1 1 3 4 2 5 8 8 8 9 10 12 11 10 10 11 12 12 10 10 11 10 10 8 8 7 6 6 6 6 4 4 9 11 9 8 7 5 6 5 4 5 3 3 4 3 3 5 2 1 1 1 1 1 4 5 3 7 7 6 2 4 5 6
10 9 10 9 8 7 6 7 7 7 6 7 10 8 6 8 3 8 9 11 13 11 12 12 15 13 10 9 9 10 9 8 6 4 8 10 11 11 9 5 1 3 9 11 11 10 10 11 11 12 12 12 12 12 11 11 9 8 7 6 6 5 5 4 4 6 6 7 8 7 6 5 4 4 4 3 4 3 4 4 3 5 4 4 3 5 3 3 5 1 3 7 6 4 4 4 4
8 10 10 10 10 6 9 4 5 1 4 5 4 4 3 2 8 11 11 13 13 12 12 14 15 13 11 10 11 10 11 8 6 9 7 6 4 7 8 11 8 7 13 8 6 10 10 12 11 10 11 11 12 13 12 11 10 8 7 9 6 5 5 5 4 5 4 6 6 6 6 5 4 4 3 3 3 3 3 4 4 3 4 4 0 3 7 5 5 4 3 5 7 4 2 5 2
5 9 10 10 9 11 4 4 10 7 4 7 4 3 7 6 8 9 10 11 13 12 11 13 12 12 13 12 12 13 11 8 5 5 5 2 2 3 4 7 9 6 10 11 9 9 10 11 10 11 11 10 10 12 13 12 10 9 7 8 6 6 7 5 5 6 5 5 5 4 4 5 5 4 4 2 2 2 2 3 4 6 3 4 5 1 5 4 5 4 5 5 6 7 2 2 6
6 8 7 9 11 11 6 5 3 6 7 4 6 8 8 7 2 6 13 11 8 9 11 10 12 13 13 11 10 11 12 9 8 9 8 6 7 4 2 2 2 7 12 14 14 11 10 8 9 11 11 11 10 11 12 12 12 10 8 7 6 4 4 5 5 6 4 5 5 5 5 5 4 4 3 2 2 2 1 1 2 6 3 3 4 6 5 5 2 4 4 6 5 8 5 4 4
12 9 2 8 4 8 6 2 6 6 7 4 8 9 4 7 6 6 9 7 8 10 11 11 10 10 9 10 10 10 11 10 9 9 7 4 1 3 3 5 3 1 8 13 11 10 10 8 11 10 11 11 12 10 9 10 10 8 7 7 6 5 4 4 4 4 4 6 6 5 4 4 5 4 4 3 3 2 3 1 3 4 4 3 4 3 4 7 5 3 4 8 9 10 9 5 5
14 12 11 9 7 6 5 2 7 6 7 5 7 10 2 7 5 6 6 9 9 9 8 11 11 6 4 5 8 10 9 9 10 9 6 5 5 5 6 5 6 4 6 10 12 9 10 11 11 11 10 11 12 10 9 11 10 8 8 9 8 8 7 6 5 5 5 6 6 5 5 5 4 4 3 4 3 3 3 3 2 3 3 4 3 4 3 4 5 3 3 6 7 7 9 11 8
9 10 10 8 6 5 6 5 7 5 4 6 4 3 3 5 10 10 5 7 10 9 8 7 8 7 5 9 9 8 8 8 9 8 8 4 2 4 5 3 4 3 4 6 9 9 6 4 9 12 12 12 12 12 10 10 10 10 8 8 9 9 7 6 6 5 5 5 5 6 5 4 4 4 3 2 3 3 3 3 4 3 5 3 4 3 2 2 4 4 3 3 4 4 5 5 8
6 6 8 9 9 9 9 9 7 9 8 5 1 0 4 4 4 1 9 10 11 12 9 7 8 10 7 8 9 7 7 9 10 11 10 9 7 5 3 5 5 6 5 7 8 7 10 10 12 12 12 12 13 12 10 9 10 10 11 8 8 10 8 7 6 6 5 6 6 5 5 4 4 5 4 5 3 2 3 1 3 3 2 3 4 4 3 2 4 5 3 2 4 5 4 4 2
Wind_Direction
271 244 245 237 238 259 267 211 249 190 236 245 257 246 249 59 16 117 117 116 289 96 50 354 7 6 309 326 337 70 43 51 28 352 94 125 131 100 110 110 112 117 125 122 125 135 134 125 132 136 136 137 136 136 138 138 136 133 131 127 125 123 121 125 124 120 120 120 118 117 118 115 113 116 116 114 110 107 105 109 121 111 103 105 106 96 92 90 87 87 85 84 83 83 83 82 75
248 240 232 239 247 255 230 208 258 249 210 251 250 244 235 130 229 248 265 93 76 51 21 4 302 254 254 277 291 84 65 70 67 85 84 108 116 111 119 120 119 124 121 126 135 130 134 135 132 136 137 137 138 138 138 137 135 131 130 129 126 123 124 125 125 121 121 122 119 117 117 115 112 112 116 116 113 107 108 122 120 112 110 111 106 103 98 92 90 87 88 87 84 85 84 82 79
270 270 246 218 237 238 299 223 241 240 240 242 255 218 115 253 68 58 55 49 15 17 40 272 303 248 227 227 219 280 81 85 92 87 103 127 116 123 122 125 122 122 121 136 132 130 133 137 135 134 136 139 140 139 138 136 132 131 130 130 126 125 126 127 124 122 122 122 120 120 119 118 115 112 111 110 118 110 119 134 120 115 116 115 112 110 101 93 92 85 83 85 85 83 82 83 81
284 274 277 220 240 204 243 225 242 265 265 272 270 47 39 65 72 59 36 54 250 24 276 263 267 76 309 88 68 96 81 65 75 111 129 138 120 130 129 118 122 120 129 138 131 130 131 133 133 134 137 139 142 139 137 135 134 134 133 131 125 128 130 129 129 125 123 123 123 122 119 116 117 113 112 99 121 122 126 118 115 121 121 121 113 108 105 96 90 86 79 77 77 79 82 83 84
267 268 259 257 273 231 231 246 245 238 251 256 316 70 72 24 69 20 50 17 311 257 235 243 266 121 84 55 10 68 88 98 113 104 103 106 125 135 132 128 130 129 134 134 129 125 134 133 131 133 137 139 139 139 135 133 134 136 135 129 129 133 132 132 131 127 126 126 124 122 122 124 128 130 119 112 128 130 131 136 128 122 125 120 110 109 107 102 88 83 82 79 77 77 77 81 82
250 261 245 244 235 339 294 257 238 238 250 268 284 78 53 42 31 43 360 233 276 54 264 278 274 155 81 53 48 72 24 96 98 88 113 122 124 128 134 135 129 135 139 137 123 122 137 129 131 132 135 137 137 133 135 136 136 137 137 133 133 132 133 131 131 129 128 129 128 127 131 135 134 136 126 123 129 131 139 134 117 127 135 131 126 112 106 101 99 86 84 82 76 74 77 80 84
237 231 215 216 253 254 259 254 253 243 238 240 273 82 83 81 25 334 277 347 211 253 157 234 240 105 116 104 81 56 47 109 116 120 119 129 118 130 141 140 137 135 134 126 121 126 136 132 131 131 132 133 131 133 137 137 139 140 135 134 132 132 132 131 131 130 131 132 132 135 138 135 137 136 133 133 131 134 144 133 134 129 113 111 108 116 108 101 96 93 82 80 77 76 80 84 85
247 277 205 210 242 209 229 247 258 267 128 273 50 20 58 45 270 8 329 279 95 262 156 278 231 265 94 131 93 95 71 64 96 109 123 128 130 146 148 140 134 136 130 126 113 125 136 131 133 134 133 129 130 132 137 136 137 138 137 135 132 132 130 132 132 132 134 136 137 139 139 137 139 140 140 138 141 142 144 132 128 122 109 113 122 115 109 96 84 80 77 71 71 75 78 77 72
236 235 269 264 254 244 247 248 254 248 271 166 71 32 91 45 4 263 279 250 302 288 278 177 167 240 105 83 81 79 79 93 110 124 131 133 142 146 135 132 134 126 117 109 114 133 142 134 133 135 135 132 124 126 132 130 134 138 139 138 135 132 134 135 134 135 137 137 139 142 140 142 136 129 138 142 147 147 138 131 135 130 130 126 116 107 99 93 85 78 71 65 72 86 92 83 66
235 232 222 238 251 255 245 246 243 245 215 89 88 98 329 29 332 2 272 292 256 296 217 229 172 96 100 93 97 66 106 114 124 134 135 142 144 146 141 128 121 132 104 113 124 139 144 141 134 135 135 135 132 127 129 130 135 137 139 136 136 138 138 137 138 138 140 145 144 142 142 139 136 132 121 113 132 129 131 127 136 130 119 112 109 108 100 91 85 79 71 71 71 96 108 110 84
234 203 257 271 254 255 253 248 237 221 191 52 54 34 42 293 357 335 296 276 299 328 271 179 260 130 98 81 81 145 119 133 139 136 145 146 145 138 132 128 132 121 117 120 131 143 142 144 139 134 135 134 135 133 134 136 137 139 138 137 139 142 141 139 142 143 145 146 147 146 142 142 133 131 125 112 108 123 123 125 134 118 116 118 115 106 99 97 87 79 76 77 91 105 117 113 100
251 230 199 241 253 255 263 270 264 111 116 105 220 100 75 323 283 257 301 290 268 184 286 128 277 105 97 118 119 131 138 134 139 139 145 148 143 135 132 139 130 117 123 128 138 139 146 141 146 141 127 131 134 134 135 138 137 137 135 136 140 141 137 136 138 142 142 146 149 149 145 142 138 139 127 112 109 115 125 126 124 112 115 120 116 105 104 93 91 92 94 89 92 104 109 109 87
255 263 233 248 262 265 272 278 313 314 51 264 99 48 327 332 339 355 283 311 286 332 275 81 92 77 106 102 113 121 131 131 143 142 147 148 138 134 132 135 132 128 130 138 144 143 148 150 148 147 138 133 133 137 137 138 137 134 134 135 136 135 135 132 138 142 144 142 146 152 152 148 142 135 124 119 114 115 121 124 121 119 124 122 118 109 100 95 93 95 100 107 106 105 106 108 109
241 246 279 273 279 272 277 294 298 278 303 91 92 109 171 268 29 335 294 265 254 206 64 81 83 93 84 118 125 121 121 187 181 151 148 145 141 137 137 137 137 135 144 140 138 143 147 149 147 146 143 146 145 138 135 135 136 133 134 135 133 130 132 136 140 144 148 144 137 142 150 144 140 135 127 125 124 121 122 125 124 126 129 127 120 112 102 97 98 101 107 113 115 110 104 114 142
247 251 269 268 278 285 279 268 263 276 137 71 77 14 15 354 84 298 278 275 324 36 106 69 124 109 171 132 156 171 166 180 166 157 148 137 147 145 138 139 143 146 145 135 137 142 148 145 149 149 156 156 150 151 147 137 134 136 137 136 133 130 129 136 146 145 142 142 139 138 153 135 136 137 132 130 130 131 128 129 132 131 131 126 122 116 109 107 112 107 116 120 122 118 114 134 199
250 273 261 270 259 260 247 244 243 276 86 82 6 70 257 264 97 304 331 316 8 332 344 69 39 75 142 184 147 159 155 170 155 150 151 147 149 145 138 145 155 151 142 138 142 148 150 150 151 153 162 157 158 155 151 148 137 135 134 132 131 130 136 141 143 141 143 148 148 151 156 149 140 136 138 137 138 132 134 131 134 133 134 130 126 119 121 117 109 116 120 129 126 126 130 165 242
236 247 268 251 257 249 257 247 252 215 95 71 1 59 10 308 40 263 5 257 262 317 62 64 46 48 109 327 133 143 153 154 155 150 154 154 151 153 151 154 160 149 141 145 153 155 156 160 157 158 165 157 160 153 151 149 143 138 136 133 134 139 144 145 141 143 139 149 147 148 156 152 151 141 145 142 137 135 126 127 133 132 135 132 130 136 134 120 110 118 135 138 136 135 142 176 226
243 229 247 250 257 248 358 37 14 37 45 37 40 24 348 261 41 330 357 207 248 22 85 59 33 35 109 104 133 144 151 159 161 161 160 155 166 160 159 164 168 156 156 156 162 158 162 167 164 164 163 161 156 151 146 145 148 151 146 141 142 142 143 139 143 153 154 147 145 140 147 143 109 248 143 141 137 127 129 135 136 135 135 138 145 147 138 123 121 129 147 153 146 143 154 174 211
231 238 238 252 232 25 16 19 27 329 49 341 13 344 47 316 339 32 295 173 202 216 67 67 56 34 92 136 134 146 156 165 162 169 161 163 174 163 164 165 177 161 167 163 170 163 169 169 164 169 161 160 154 147 144 140 151 159 152 152 147 152 155 154 157 158 158 155 159 143 79 98 115 119 81 146 137 133 129 136 135 141 148 150 149 149 142 125 126 148 160 166 157 162 172 195 208
225 253 235 238 263 358 334 307 44 308 34 316 0 351 26 309 269 35 283 316 228 137 121 106 130 125 142 134 154 155 159 169 176 169 168 171 172 167 168 171 181 169 169 168 169 174 170 172 166 164 165 156 159 148 138 141 152 160 154 153 150 155 161 161 159 169 161 165 139 100 116 107 109 85 138 174 137 128 131 137 144 149 157 162 156 148 143 133 136 157 169 164 172 190 222 185 197
175 232 246 247 53 343 58 328 352 357 338 326 312 288 323 278 358 344 307 313 268 120 148 134 151 173 152 163 164 168 177 175 177 179 169 166 185 169 168 178 181 170 171 170 160 178 167 163 162 165 161 153 149 122 120 143 147 159 153 149 154 157 162 164 137 79 52 86 99 112 118 115 110 124 108 115 123 132 140 146 151 155 154 171 185 175 168 164 180 182 179 187 197 213 217 190 9
253 226 242 260 288 322 332 51 12 290 342 296 283 281 272 340 323 254 265 282 342 125 145 141 158 175 158 177 167 174 183 177 175 188 182 175 183 164 173 174 180 165 165 173 170 170 160 115 217 153 134 97 87 83 118 138 150 139 155 147 153 163 129 71 79 86 87 92 100 106 110 118 113 109 113 124 149 150 148 153 168 159 170 183 197 201 189 163 206 218 175 188 206 204 179 211 119
241 242 262 275 284 302 341 95 49 42 291 294 306 297 319 332 289 305 271 269 336 109 141 144 156 161 148 179 177 177 183 153 230 194 189 181 176 174 179 178 173 177 173 149 60 43 17 39 18 1 14 30 56 58 28 8 61 64 50 92 94 58 82 91 84 105 122 111 121 125 137 127 125 123 140 150 178 174 153 166 177 168 184 193 177 227 179 164 209 212 213 192 195 194 176 171 115
242 255 240 237 246 240 257 291 356 316 282 257 255 290 306 295 279 264 314 321 266 129 165 138 155 155 156 173 179 188 149 152 205 221 200 186 181 184 172 175 172 171 166 70 58 88 151 177 124 95 76 23 59 67 356 17 54 68 68 79 92 98 96 90 100 161 132 120 126 145 146 131 130 151 152 166 179 154 132 176 210 182 161 167 204 215 170 164 213 208 204 219 198 183 175 131 90
230 238 259 279 315 292 289 296 274 264 266 282 276 268 257 250 259 279 286 275 292 79 146 120 132 148 159 164 173 181 148 188 201 213 207 192 189 185 167 188 175 149 71 95 129 192 147 98 99 101 89 95 95 103 71 45 51 78 37 91 103 122 100 120 156 182 147 107 145 165 161 135 141 157 162 172 156 146 93 43 300 284 163 189 204 251 154 175 210 217 196 214 167 173 142 124 116
227 250 256 262 255 247 240 251 256 259 264 262 266 254 258 255 256 262 284 264 249 130 104 128 133 141 158 164 166 177 174 191 205 223 210 197 189 185 180 189 171 88 110 135 165 124 133 113 103 100 104 124 128 139 156 108 79 56 90 136 121 161 154 136 133 161 106 117 141 179 164 140 139 153 147 153 128 152 94 94 289 276 289 201 164 224 222 174 199 234 221 213 181 177 152 147 138
25 258 245 250 256 263 242 239 248 252 258 257 250 248 248 238 226 245 231 250 229 142 216 172 132 141 167 173 164 177 187 187 185 217 232 205 187 198 184 183 135 99 81 107 121 143 140 130 102 115 129 146 122 122 153 148 121 123 177 138 125 124 118 118 136 176 155 137 147 167 157 147 134 136 137 143 143 164 151 205 217 222 200 183 193 226 222 180 176 211 240 206 214 207 142 136 121
242 242 275 276 280 273 275 275 264 256 248 241 249 266 269 267 253 255 256 232 157 215 221 201 163 134 185 173 180 174 195 197 202 196 213 193 195 196 188 181 97 79 100 201 166 131 122 111 120 140 152 127 111 116 172 163 123 133 141 112 107 114 120 119 133 159 164 154 152 164 161 149 149 136 139 165 186 167 199 220 211 180 183 189 211 195 278 29 272 176 225 223 60 56 67 84 71
257 266 261 258 255 250 240 243 237 224 246 242 245 261 250 234 241 231 250 260 161 212 232 192 192 101 157 174 163 189 200 215 203 208 199 194 195 192 184 152 102 102 207 186 156 156 122 116 134 145 159 115 109 130 179 175 127 141 169 135 127 137 136 124 134 150 160 158 155 163 157 152 165 147 177 171 161 188 216 220 14 239 160 111 41 236 222 197 251 9 351 342 78 107 111 110 99
256 265 264 268 264 255 239 225 226 221 218 241 185 245 243 233 233 228 242 251 182 200 216 127 85 140 171 142 150 202 148 317 319 256 190 194 191 186 189 99 103 113 223 167 147 134 127 133 142 158 161 118 130 145 180 176 124 152 138 121 126 144 148 129 134 149 164 166 153 135 144 148 178 128 196 172 187 192 141 129 229 194 155 143 201 197 141 240 108 339 282 339 48 79 98 119 93
262 245 231 256 262 259 234 212 197 217 209 209 111 268 276 275 230 214 230 237 197 194 211 116 149 136 157 140 147 175 173 152 221 289 267 190 179 177 183 102 112 135 199 184 149 145 135 139 152 161 174 133 137 146 162 165 142 146 125 123 100 145 154 145 158 141 157 146 124 130 142 138 148 145 208 187 194 165 167 194 191 210 118 183 192 134 52 4 338 226 25 82 111 84 42 20 144
229 244 234 226 245 254 254 179 166 219 175 181 197 239 264 271 278 227 206 220 167 193 224 138 149 162 159 160 153 180 206 125 156 266 282 248 192 180 166 110 131 163 189 152 145 145 143 146 168 168 164 144 142 149 151 155 146 134 128 122 114 85 238 136 144 146 156 142 139 131 154 157 158 200 223 183 187 192 190 146 171 103 115 293 54 51 65 59 20 40 52 80 106 120 115 75 32
215 237 251 239 214 254 129 158 166 214 159 186 210 253 242 244 304 7 177 161 164 206 224 146 151 156 170 172 168 164 174 183 193 210 239 252 216 191 165 120 142 161 181 150 146 154 151 150 162 157 159 147 142 155 145 143 142 131 127 142 133 167 189 128 129 141 149 150 152 157 156 136 119 167 323 338 356 289 154 148 187 148 184 184 95 32 347 108 101 55 51 65 107 131 119 101 50
219 202 239 258 245 212 237 157 193 195 197 184 195 237 264 286 340 77 83 159 210 214 205 165 162 171 168 174 173 161 182 189 207 209 209 245 236 205 186 124 146 155 179 173 132 144 154 151 159 161 150 152 146 147 141 137 146 141 139 133 125 153 157 140 141 148 153 150 153 152 140 128 135 137 37 50 96 279 274 182 154 168 183 113 69 67 35 33 79 53 92 48 68 122 103 86 73
232 198 211 239 252 276 272 163 168 201 149 249 222 212 266 272 237 205 164 172 241 257 234 194 179 163 170 153 120 143 193 194 217 235 222 167 243 223 180 124 134 150 175 163 127 152 160 149 153 165 147 150 152 143 132 129 133 131 131 135 153 154 131 146 164 154 156 162 152 142 144 146 152 150 136 123 108 227 244 173 163 177 156 111 111 79 79 58 45 28 32 106 32 65 75 90 148
229 219 204 210 248 236 253 149 140 178 168 197 241 245 227 251 273 282 170 194 214 238 231 246 190 166 160 141 128 161 207 232 191 225 220 169 245 224 165 129 126 137 154 143 142 144 161 133 148 156 155 155 150 147 139 142 148 156 146 139 121 151 142 164 192 191 145 169 151 157 145 143 152 176 176 166 164 222 220 196 184 189 130 122 135 119 108 88 34 130 177 165 111 87 82 127 107
265 302 311 299 242 236 221 221 163 187 201 214 257 274 258 264 271 260 250 246 205 193 238 234 227 180 155 138 162 181 172 211 71 50 301 258 206 239 154 122 120 141 150 165 159 154 167 138 143 156 157 158 154 155 150 163 169 160 153 159 162 151 154 156 143 182 169 177 169 157 141 158 163 179 177 186 190 205 154 220 73 71 103 110 99 126 113 129 140 224 96 8 98 112 105 104 129
282 314 286 260 295 265 264 281 154 172 236 187 221 254 261 260 250 263 286 291 275 215 198 246 250 234 169 157 166 180 195 155 80 264 163 307 270 220 126 130 127 135 180 190 183 154 160 148 158 163 154 161 169 160 160 180 170 162 157 147 144 149 155 150 148 156 184 188 164 171 158 185 174 178 198 207 204 171 167 175 164 143 125 117 123 78 98 68 278 157 110 78 15 96 148 124 155
254 243 261 269 263 281 288 248 195 126 165 226 266 281 279 264 253 254 258 250 271 273 182 221 247 252 241 177 180 183 169 144 126 243 77 220 232 213 75 73 127 152 187 195 185 169 162 155 166 155 158 165 161 160 158 172 165 154 127 144 169 154 134 138 144 145 159 168 168 157 175 181 174 181 198 199 190 177 172 169 166 170 155 136 113 110 115 156 240 193 132 128 107 320 89 85 187
317 227 239 254 261 258 231 253 245 217 224 299 319 289 275 261 261 262 247 229 245 265 236 214 228 248 243 239 232 166 165 158 165 179 204 215 198 119 142 150 149 158 185 216 197 183 167 163 158 154 151 159 158 162 159 154 136 130 126 135 124 100 108 105 123 134 145 150 157 158 178 194 184 178 191 189 175 180 166 179 176 180 173 155 150 135 114 155 233 277 106 143 147 161 169 151 224
226 249 253 248 251 250 267 293 283 287 196 117 252 268 272 270 271 263 251 257 262 264 272 231 218 241 241 234 233 186 157 162 166 172 180 175 162 172 180 194 176 165 171 185 203 171 176 167 148 150 152 159 158 149 139 144 131 117 113 113 104 109 110 115 127 140 154 161 155 177 179 188 188 200 205 178 168 159 175 177 172 178 181 171 161 146 134 149 174 262 215 174 168 188 157 124 149
251 234 241 255 264 269 260 249 256 225 223 171 193 264 252 238 237 243 255 250 235 230 248 263 240 220 245 239 218 182 156 171 171 171 169 165 163 166 187 191 185 174 150 91 7 323 253 171 156 154 154 155 159 154 144 147 149 141 147 150 155 151 142 154 168 162 161 169 180 162 170 184 191 194 170 179 161 162 175 191 178 185 178 154 137 150 121 107 116 208 219 135 193 215 137 122 129
244 237 214 234 248 267 278 279 285 269 253 279 259 257 269 272 249 235 234 238 239 224 220 237 245 234 234 239 239 183 161 169 187 164 158 165 163 166 184 187 176 157 74 93 38 299 303 245 167 160 152 154 153 157 149 157 156 154 159 162 163 158 151 165 147 146 150 149 141 171 194 195 198 180 178 187 169 178 183 197 191 194 189 165 182 137 109 127 149 184 196 175 197 150 141 139 152
241 254 242 214 216 228 238 254 270 289 299 275 275 286 289 279 283 292 275 281 265 256 261 226 221 248 242 241 238 226 161 171 186 168 170 169 165 172 174 173 177 122 132 163 171 171 223 258 204 157 149 149 152 156 155 163 159 158 162 162 154 158 155 146 143 150 137 137 147 175 207 198 215 205 185 185 189 193 189 191 182 191 165 197 183 155 141 143 154 160 178 167 147 101 51 158 157
239 232 239 282 293 282 294 281 266 256 264 260 250 257 256 248 257 262 274 286 278 246 262 278 239 199 258 266 247 242 177 172 175 174 166 164 166 166 164 170 167 134 148 163 172 184 176 227 208 162 147 149 150 154 158 174 162 160 162 158 148 147 135 127 133 133 129 113 125 128 123 280 247 239 203 171 184 193 189 189 190 185 172 219 188 160 113 138 145 142 138 116 136 139 171 196 155
229 265 285 254 222 259 268 273 263 256 249 251 249 242 260 264 250 257 251 281 287 267 223 249 295 315 234 346 347 10 346 169 172 174 160 162 164 158 159 168 151 147 158 170 179 176 184 180 197 165 155 153 158 159 167 168 162 161 164 156 145 133 122 116 117 120 121 133 132 184 117 291 259 241 236 225 176 192 186 188 185 181 197 204 167 117 110 152 121 128 115 126 138 148 151 159 151
283 260 263 222 222 249 245 254 269 268 248 251 248 248 254 271 276 267 257 239 257 288 274 200 237 291 16 14 8 28 63 63 92 63 72 126 132 140 161 167 157 155 159 160 168 194 191 181 178 163 162 163 157 161 168 167 158 162 164 155 151 142 133 122 115 130 144 154 160 185 145 201 262 227 208 209 121 258 173 196 166 181 169 177 194 95 117 144 139 130 139 166 142 148 145 138 135
224 250 247 275 240 217 236 235 221 237 250 256 260 254 233 254 235 247 247 252 258 215 293 45 37 23 17 13 7 23 43 85 92 119 108 127 127 149 155 158 160 157 147 153 173 165 186 220 177 177 164 159 156 160 164 162 159 164 152 148 147 141 140 137 141 155 170 176 148 155 143 292 241 204 180 166 166 184 166 120 179 158 158 127 121 105 138 186 151 137 141 167 149 123 130 140 130
219 227 224 231 236 230 227 210 227 228 244 253 257 252 248 229 251 264 265 288 55 46 45 42 31 9 10 5 358 18 33 88 92 122 143 145 150 154 163 161 161 164 158 163 168 165 179 174 185 176 168 158 158 157 157 157 163 157 148 149 130 131 132 137 159 169 167 161 152 169 166 193 201 175 172 158 200 148 123 129 75 104 310 78 97 121 134 145 174 124 151 152 134 146 151 148 147
231 231 222 216 235 237 230 232 240 261 247 252 262 272 271 300 260 256 41 51 56 55 57 53 40 34 21 3 10 9 21 112 109 125 27 42 45 100 148 165 169 168 166 168 166 169 181 180 185 175 167 158 159 153 158 156 161 150 144 142 129 140 139 149 156 150 154 164 162 182 180 163 165 174 164 166 155 151 146 144 142 129 150 247 155 108 110 129 131 161 138 143 127 146 151 141 146
212 233 231 225 234 236 237 219 235 243 287 318 317 296 226 245 43 348 98 73 64 44 41 46 41 30 17 15 11 15 46 69 20 28 38 20 6 351 344 342 335 191 181 177 171 157 188 171 184 174 162 169 162 157 157 155 156 150 144 134 140 148 138 149 184 164 152 150 147 154 146 163 147 157 150 147 166 153 135 140 141 148 150 179 188 150 119 121 124 19 125 118 135 179 155 122 155
205 212 224 240 233 235 268 292 271 359 307 274 220 251 282 200 46 39 54 69 56 47 42 40 38 22 13 20 18 6 31 54 33 39 43 43 24 11 347 340 4 341 302 271 153 173 193 179 173 174 169 172 167 156 158 155 154 147 151 139 157 148 140 182 167 117 116 119 130 143 156 159 158 137 117 139 140 140 144 137 155 152 146 153 144 136 141 169 137 145 172 138 143 148 147 128 136
188 214 223 232 250 257 233 238 275 289 247 252 260 252 257 301 92 66 62 47 44 47 36 35 34 28 13 11 12 1 18 34 54 86 115 155 269 32 8 349 349 318 277 274 232 197 189 175 166 167 172 177 170 164 159 153 146 144 149 139 152 160 172 172 136 128 132 129 131 134 130 110 97 98 114 120 127 129 166 170 174 138 135 131 127 80 91 142 119 176 153 134 127 114 90 198 143
272 242 242 251 240 260 246 257 234 248 253 238 222 242 245 215 158 8 42 29 39 49 48 43 43 29 12 357 14 5 6 11 21 39 41 41 23 359 338 312 341 296 257 228 219 195 194 168 168 172 167 181 171 173 155 148 140 143 144 138 151 159 140 121 113 131 131 119 110 95 94 107 115 122 133 154 125 117 109 154 99 118 118 122 127 147 153 130 135 97 154 88 106 119 168 228 207
239 240 163 256 186 228 233 277 247 240 238 252 235 249 253 51 67 48 71 50 31 33 40 49 35 22 358 338 357 12 6 10 16 24 30 26 37 3 40 320 274 130 273 279 253 196 182 170 177 171 169 175 172 166 143 133 129 127 139 139 150 132 132 130 138 143 130 121 118 121 135 125 126 139 144 135 147 159 154 126 103 125 139 137 140 116 129 143 139 180 121 126 157 160 157 161 256
226 253 238 219 281 281 274 256 255 238 253 251 243 241 83 29 36 33 36 49 34 45 34 51 70 42 320 350 10 15 28 18 18 16 1 345 5 27 23 338 320 289 254 243 249 218 195 179 173 170 169 168 166 156 144 134 133 135 151 149 148 135 151 157 149 145 133 136 138 140 119 134 151 134 137 161 173 156 154 144 161 123 125 137 140 137 141 137 143 139 145 145 150 158 152 149 170
210 210 246 245 229 271 248 192 240 257 265 250 264 228 63 6 0 360 38 36 52 63 71 65 49 64 21 66 35 18 23 25 21 22 19 11 349 40 25 55 37 328 313 278 277 293 275 220 187 169 167 174 165 151 142 133 134 144 153 140 139 133 151 147 153 151 148 143 135 128 142 142 132 125 141 162 142 158 151 167 148 169 150 145 127 125 123 123 126 127 129 140 131 141 127 134 153
245 251 236 237 241 227 231 244 202 213 230 249 219 144 109 40 42 10 12 34 35 35 70 66 56 56 41 60 73 44 23 27 24 24 20 26 32 25 9 29 30 328 337 319 312 289 254 256 210 174 170 176 158 147 139 133 140 147 145 152 153 141 153 151 158 162 142 137 131 140 141 146 127 145 175 158 167 109 138 211 135 150 88 115 130 119 129 142 125 137 151 157 148 147 141 145 170